sat.trackr.live / text

‹ back to catalog

ICEYE-X45

NORAD 62705 · 2025-009DA

PAYLOAD ACTIVE UNKNOWN

§ Identity

Operator
Country
US
Launch date
2025-01-14
Launch site
AFWTR
Launch vehicle
Mass (kg)
RCS (m²)

External: N2YO · Heavens-Above · Gunter

§ Orbital elements

Epoch: 2026-09-22T11:15:36.416736Z

Period
95.95 min
Inclination
97.8574°
Eccentricity
0.0001177
Mean motion
15.00823612 rev/d
Perigee alt
563.5 km
Apogee alt
565.2 km
Semi-major
6,942.5 km
B*
2.5643e-4
RAAN
353.0631°
Arg perigee
91.8923°
Mean anomaly
268.2435°
Rev number
9,227

§ Raw data

ICEYE-X451 62705U 25009DA  26265.46917149  .00003196  00000+0  25643-3 0  99992 62705  97.8574 353.0631 0001177  91.8923 268.2435 15.00823612 92279

JSON: /api/v1/satellites/62705 · /tle

For live sub-satellite position, see the globe view (requires WebGL).

§ Visibility from observer

Set your observer location to see the next 7 days of passes ≥ 10°. The values pass through the URL so the page stays shareable.

No JS? Fill the form by hand. The geolocation button needs JavaScript.

§ Radio — SatNOGS DB

ModeDescriptionDownlinkUplink
BPSK S-band telemetry 2.264 GHz

1 transmitter · refreshed weekly from db.satnogs.org